Location: Eschertshofen
(49.3064°N, 11.5756°E)
Time: 19:06:09
(UTC+00:00)

Iridium 26 - Pass Details

Date: 26 September 2021
Orbit: 772 x 775 km, 86.4° (Epoch: 21 October)

Event Time Altitude Azimuth Distance (km) Brightness Sun altitude
Exits shadow 18:42:24 10° 53° (NE) 2,316 7.7 -16.8°
Drops below altitude 10° 18:42:31 10° 52° (NE) 2,332 7.7 -16.9°
Sets 18:46:30 0° 21° (NNE) 3,265 8.7 -17.5°
